This demonstration page uses our WeatherBlox Daily Observations layout. Learn more.

Left ArrowRight Arrow

Hourly Observations for February 21, 2021

Temp ( °F °C ) Dew Point ( °F °C ) Humidity (%) Winds ( mph kmh ) Pressure ( in mb ) Visibility ( mi km ) Precip ( " mm )
12:15 am 00:15 undefined 32 -0.2 29 -1.8 89 89 SSE 10 17 29.93 1013 7 11 N/A
12:35 am 00:35 undefined 32 -0.1 29 -1.7 89 89 SSE 6 9 29.93 1013 7 11 N/A
12:55 am 00:55 undefined 32 -0.2 29 -1.7 90 90 N N/A 29.93 1013 7 11 N/A
1:15 am 01:15 undefined 31 -0.7 28 -2.1 90 90 N N/A 29.93 1014 7 11 N/A
1:35 am 01:35 undefined 28 -2 26 -3.2 92 92 N N/A 29.94 1014 7 11 N/A
1:55 am 01:55 undefined 30 -1.3 28 -2.2 94 94 NNW 3 6 29.94 1014 7 11 N/A
2:15 am 02:15 undefined 30 -0.9 28 -2.1 92 92 NNE 3 6 29.92 1013 7 11 N/A
2:35 am 02:35 Mostly Clear with Mist and Fog 29 -1.6 27 -2.6 93 93 NE 3 6 29.93 1014 5 8 N/A
2:55 am 02:55 Mostly Clear with Mist and Fog 29 -1.5 28 -2.3 94 94 NE 5 7 29.93 1013 5 8 N/A
3:15 am 03:15 Mostly Clear with Mist and Fog 30 -1 28 -2 93 93 ENE 7 11 29.89 1012 5 8 N/A
3:35 am 03:35 Partly Cloudy with Isolated Snow Showers 30 -1.2 28 -2.1 94 94 E 6 9 29.89 1012 4 6 N/A
3:55 am 03:55 Mostly Clear with Mist and Fog 29 -1.6 28 -2.5 94 94 N N/A 29.90 1013 5 8 N/A
4:15 am 04:15 Mostly Clear with Mist and Fog 29 -1.6 28 -2.5 94 94 N N/A 29.90 1013 5 8 N/A
4:35 am 04:35 Mostly Clear with Mist and Fog 29 -1.6 28 -2.5 94 94 N N/A 29.91 1013 5 8 N/A
4:55 am 04:55 Mostly Clear with Mist and Fog 29 -1.4 28 -2.1 95 95 N 5 7 29.89 1012 5 8 N/A
5:15 am 05:15 Partly Cloudy with Isolated Snow Showers 30 -1.3 28 -2 95 95 N 5 7 29.90 1012 4 6 N/A
5:35 am 05:35 Mostly Clear with Mist and Fog 30 -1.2 28 -2 94 94 N 3 6 29.90 1012 4 6 N/A
5:55 am 05:55 Mostly Clear with Mist and Fog 30 -1.3 28 -2 95 95 NNW 3 6 29.90 1012 4 6 N/A
6:15 am 06:15 Partly Cloudy with Isolated Snow Showers 30 -1.2 28 -2 94 94 NW 3 6 29.91 1013 4 6 N/A
6:35 am 06:35 Mostly Clear with Mist and Fog 30 -1.2 28 -2 94 94 NW 5 7 29.92 1013 3 5 N/A
6:55 am 06:55 Mostly Clear with Mist and Fog 30 -1.1 29 -1.8 95 95 NW 6 9 29.92 1013 4 6 N/A
7:15 am 07:15 Mostly Clear with Mist and Fog 30 -1 29 -1.6 96 96 NW 9 15 29.92 1013 4 6 N/A
7:35 am 07:35 Partly Cloudy with Mist and Fog 31 -0.7 29 -1.5 94 94 NW 10 17 29.93 1014 4 6 N/A
7:55 am 07:55 Partly Cloudy with Mist and Fog 32 -0.2 30 -1.1 94 94 NNW 12 19 29.94 1014 5 8 N/A
8:15 am 08:15 undefined 32 0.1 29 -1.4 90 90 NNW 15 24 29.94 1014 10 16 N/A
8:35 am 08:35 undefined 32 0.2 29 -1.8 87 87 NNW 14 22 29.95 1014 10 16 N/A
8:55 am 08:55 undefined 33 0.5 29 -1.9 84 84 N 17 28 29.95 1014 10 16 N/A
9:15 am 09:15 undefined 33 0.6 30 -1 89 89 N 16 26 29.96 1015 10 16 N/A
9:35 am 09:35 undefined 34 1 31 -0.6 89 89 NNW 13 20 29.97 1015 10 16 N/A
9:55 am 09:55 undefined 34 1.2 31 -0.5 89 89 NNW 16 26 29.97 1015 10 16 N/A
10:15 am 10:15 undefined 35 1.8 31 -0.5 85 85 NNW 17 28 29.98 1015 10 16 N/A
10:35 am 10:35 undefined 36 2.3 31 -0.5 82 82 NW 13 20 29.98 1015 10 16 N/A
10:55 am 10:55 undefined 36 2.3 31 -0.6 81 81 NW 14 22 29.98 1015 10 16 N/A
11:15 am 11:15 undefined 36 2.4 30 -1 79 79 NW 16 26 29.99 1016 10 16 N/A
11:35 am 11:35 undefined 37 2.6 29 -1.8 73 73 NW 17 28 29.99 1016 10 16 N/A
11:55 am 11:55 undefined 37 2.9 26 -3.6 63 63 NW 15 24 29.99 1015 10 16 N/A
12:15 pm 12:15 undefined 37 3 25 -4.1 60 60 NW 16 26 30.00 1016 10 16 N/A
12:35 pm 12:35 undefined 38 3.2 25 -3.7 61 61 NW 14 22 29.99 1016 10 16 N/A
12:55 pm 12:55 undefined 37 3 26 -3.1 65 65 WNW 15 24 30.00 1016 10 16 N/A
1:15 pm 13:15 undefined 38 3.2 27 -3 64 64 WNW 16 26 29.99 1016 10 16 N/A
1:35 pm 13:35 undefined 38 3.1 27 -3 65 65 WNW 17 28 30.00 1016 10 16 N/A
1:55 pm 13:55 undefined 38 3.3 27 -3 64 64 WNW 17 28 30.00 1016 10 16 N/A
2:15 pm 14:15 undefined 38 3.3 27 -3 64 64 NW 20 31 29.99 1016 10 16 N/A
2:35 pm 14:35 undefined 38 3.3 27 -2.6 66 66 WNW 18 30 30.00 1016 10 16 N/A
2:55 pm 14:55 undefined 38 3.5 28 -2.2 67 67 WNW 13 20 30.00 1016 10 16 N/A
3:15 pm 15:15 undefined 38 3.5 28 -2.2 67 67 WNW 15 24 30.01 1016 10 16 N/A
3:35 pm 15:35 undefined 38 3.3 28 -2.3 67 67 WNW 15 24 30.02 1017 10 16 N/A
3:55 pm 15:55 undefined 38 3.5 28 -2.5 65 65 WNW 14 22 30.02 1017 10 16 N/A
4:15 pm 16:15 undefined 38 3.5 27 -2.6 65 65 WNW 15 24 30.02 1017 10 16 N/A
4:35 pm 16:35 undefined 38 3.6 27 -3 62 62 WNW 12 19 30.02 1017 10 16 N/A
4:55 pm 16:55 undefined 38 3.4 26 -3.1 63 63 WNW 14 22 30.02 1017 10 16 N/A
5:15 pm 17:15 undefined 38 3.3 26 -3.5 61 61 WNW 13 20 30.03 1017 10 16 N/A
5:35 pm 17:35 undefined 37 3 25 -3.7 62 62 WNW 13 20 30.04 1017 10 16 N/A
5:55 pm 17:55 undefined 36 2 26 -3.4 68 68 W 7 11 30.06 1018 10 16 N/A
6:15 pm 18:15 undefined 35 1.9 27 -3 70 70 W 12 19 30.06 1018 10 16 N/A
6:35 pm 18:35 undefined 35 1.5 27 -3 72 72 W 9 15 30.07 1018 10 16 N/A
6:55 pm 18:55 undefined 33 0.5 26 -3.4 75 75 W 8 13 30.09 1019 10 16 N/A
7:15 pm 19:15 undefined 34 1.2 26 -3.5 71 71 W 10 17 30.08 1019 10 16 N/A
7:35 pm 19:35 undefined 34 1 26 -3.5 72 72 W 13 20 30.09 1019 10 16 N/A
7:55 pm 19:55 undefined 33 0.5 25 -3.9 73 73 W 13 20 30.09 1019 10 16 N/A
8:15 pm 20:15 undefined 33 0.8 25 -4 71 71 W 13 20 30.09 1019 10 16 N/A
8:35 pm 20:35 undefined 33 0.3 24 -4.4 71 71 W 13 20 30.10 1019 10 16 N/A
8:55 pm 20:55 undefined 33 0.3 24 -4.6 70 70 W 13 20 30.10 1019 10 16 N/A
9:15 pm 21:15 undefined 32 0.2 24 -4.7 70 70 W 14 22 30.11 1020 10 16 N/A
9:35 pm 21:35 undefined 32 undefined 23 -4.9 70 70 W 14 22 30.11 1020 10 16 N/A
9:55 pm 21:55 undefined 32 -0.1 23 -5 70 70 W 12 19 30.12 1020 10 16 N/A
10:15 pm 22:15 undefined 31 -0.5 23 -5.2 71 71 W 10 17 30.12 1020 10 16 N/A
10:35 pm 22:35 undefined 30 -1.1 23 -5.2 74 74 W 13 20 30.13 1020 10 16 N/A
10:55 pm 22:55 undefined 29 -1.4 22 -5.5 74 74 W 14 22 30.13 1020 10 16 N/A
11:15 pm 23:15 undefined 29 -1.5 22 -5.6 74 74 W 13 20 30.12 1020 10 16 N/A
11:35 pm 23:35 undefined 29 -1.6 21 -6 72 72 W 12 19 30.11 1020 10 16 N/A
11:55 pm 23:55 undefined 28 -2 21 -6 74 74 W 12 19 30.11 1020 10 16 N/A

Powered by AerisWeather